User: anonymous   Login
Location: Caltech
(34.1382°N, 118.1253°W)
Time: 10:29:18
(UTC-07:00)
Language:

Iridium 75 - Orbit

View from above orbital plane
View from above orbital plane
View from above satellite
View from above satellite

Ground track
Ground track

The orbit data is extracted from the following two-line orbital elements,

1 25346U 98032E   14297.98843043  .00000634  00000-0  21923-3 0   358
2 25346 086.3947 267.9253 0002206 100.8867 319.2246 14.34216655861181
Epoch (UTC): 24 October 2014 23:43:20
Eccentricity: 0.0002206
inclination: 86.3947°
perigee height: 776 km
apogee height: 779 km
right ascension of ascending node: 267.9253°
argument of perigee: 100.8867°
revolutions per day: 14.34216655
mean anomaly at epoch: 319.2246°
orbit number at epoch: 86118

The dashed part of the orbit path shows where the satellite is in the earth's shadow,  

DLR